Theta_e
311 310 311 312 311 310 308 308 308 308 308 308 308 308 308 307 306 306 306 307 307 308 308 308 307 307 307 306 305 305 304 304 303 301 301 300 300 300 300 300 299 298 297 297 296 296 296 296 296 296 297 297 298 298 299 299 299 300 300 300 301 301 302 302 302 303 303 302 302 301 301 300 300 300 300 300 299 299 299 298 297 297 297 297 298 299
309 309 309 309 310 309 307 306 306 307 308 307 307 307 307 306 306 306 306 306 307 307 307 307 306 306 306 305 305 304 303 303 302 301 300 299 299 299 299 299 298 297 297 296 295 295 294 293 293 293 294 295 296 296 297 298 298 299 299 299 299 300 300 300 301 301 301 301 300 300 300 300 299 299 299 299 298 298 298 297 296 296 296 296 297 298
308 308 307 307 308 308 306 305 304 305 306 306 307 306 306 305 305 305 305 306 306 306 306 306 305 305 305 304 304 303 303 302 301 300 299 299 299 298 298 298 297 296 296 295 294 293 292 292 291 291 291 292 292 293 294 295 296 297 298 298 298 298 299 299 299 299 300 299 299 299 299 298 298 298 298 297 297 297 296 296 295 295 295 295 295 296
308 308 307 307 306 306 305 305 304 304 304 305 305 305 305 304 305 305 305 305 306 306 306 305 305 304 304 303 303 302 302 301 301 300 299 298 298 297 297 296 296 296 295 294 293 292 291 291 291 291 290 290 290 290 290 291 292 294 295 296 297 297 297 298 298 298 298 298 298 298 298 298 297 297 297 296 296 296 295 295 294 294 294 294 294 295
307 307 307 306 306 304 304 304 304 303 303 303 303 303 303 303 304 304 305 305 305 305 305 305 304 304 303 303 302 302 301 301 300 299 299 298 297 297 296 296 296 295 295 294 292 291 290 290 290 290 290 289 289 289 288 288 289 290 291 293 295 295 296 296 297 297 297 297 297 297 297 297 296 296 296 296 295 295 294 294 294 293 293 293 293 294
307 307 307 306 305 304 303 303 303 303 302 302 302 302 302 302 303 304 304 304 304 304 304 304 304 303 303 302 301 301 301 300 299 299 298 297 296 296 296 295 295 295 294 293 292 291 290 289 289 289 289 289 288 288 288 287 287 287 288 290 292 293 294 295 295 296 296 296 296 296 296 296 296 296 295 295 295 294 294 293 293 293 293 293 293 294
306 306 306 305 304 303 302 302 302 302 302 302 301 301 301 302 302 303 303 303 303 304 303 303 303 303 302 301 301 300 300 299 298 298 297 296 296 295 295 295 294 294 293 292 291 290 289 289 288 288 288 288 288 287 287 286 286 286 287 287 289 290 291 292 293 294 294 294 295 295 295 295 295 295 295 294 294 294 293 293 293 293 293 293 293 293
305 305 304 304 303 302 301 301 301 301 302 302 301 300 300 300 301 302 302 302 302 302 302 302 302 302 302 301 300 300 299 298 298 297 296 295 295 294 294 294 294 293 293 292 291 290 289 288 288 288 288 288 287 287 286 286 286 287 287 287 287 288 289 290 290 291 292 292 293 293 293 293 294 293 294 293 293 293 293 292 292 292 293 293 293 293
306 304 303 303 303 302 300 300 300 300 300 301 300 300 299 299 300 300 301 301 301 301 302 302 301 301 301 301 300 299 299 298 297 296 295 295 294 294 294 293 293 293 292 291 290 289 289 288 288 288 288 287 287 286 285 285 286 286 287 287 288 288 288 288 289 289 290 290 291 291 292 292 292 292 292 292 292 292 292 291 291 292 292 293 293 294
306 305 303 302 302 302 301 299 298 298 299 299 299 299 299 299 299 299 299 300 300 300 301 301 301 301 301 300 300 299 298 297 296 295 294 294 293 293 293 293 292 292 292 291 290 289 288 288 288 287 287 287 287 286 285 284 285 286 287 287 288 288 288 288 288 289 289 289 290 290 290 291 291 291 291 291 291 291 290 290 290 291 291 293 294 294
305 304 303 302 301 301 301 300 299 298 298 298 298 298 298 298 298 298 297 298 299 299 299 300 300 300 300 300 299 298 297 296 295 294 293 293 292 292 292 292 292 292 291 291 290 289 288 288 287 287 287 287 286 285 284 284 284 286 287 287 288 288 288 289 289 289 289 289 289 289 290 290 290 290 290 290 290 289 289 289 289 290 291 293 294 295
304 304 303 301 300 300 300 299 298 298 297 297 297 297 297 297 298 298 297 297 297 297 298 298 299 300 300 299 298 297 296 295 294 294 293 292 292 292 292 292 292 292 291 291 290 289 289 288 287 287 286 286 286 285 284 284 284 285 286 287 287 288 288 289 289 289 289 289 289 289 289 289 289 290 290 289 289 289 288 288 289 289 291 292 294 295
304 303 302 300 299 298 298 297 297 297 297 297 297 297 297 297 297 298 298 297 297 297 297 297 298 299 299 298 297 296 295 294 294 293 293 292 292 292 292 292 292 292 291 291 290 290 289 288 287 286 285 285 284 284 284 284 284 285 286 287 287 287 288 288 289 289 289 289 290 290 290 290 290 290 290 290 289 289 288 288 289 290 291 292 293 294
303 302 301 299 298 298 297 297 296 296 296 297 298 298 298 298 297 298 298 297 297 296 296 296 297 297 297 297 296 295 294 293 293 293 292 292 292 292 293 293 292 292 291 291 290 290 289 288 287 286 285 284 284 284 284 284 284 285 286 286 287 287 287 288 288 289 289 289 290 290 290 290 290 290 290 290 290 289 289 289 289 290 291 292 293 294
302 301 300 299 298 297 297 296 296 297 297 297 298 299 299 298 298 298 298 297 296 295 295 295 295 296 296 296 295 294 293 293 292 292 292 292 292 293 293 293 292 292 291 290 290 290 289 288 287 285 284 284 284 285 285 286 286 286 286 287 287 287 287 287 288 288 289 289 289 290 290 290 290 290 290 290 290 290 289 289 289 290 291 292 292 293
302 301 301 300 299 299 298 297 297 297 298 298 298 299 299 298 298 297 297 296 295 294 294 294 293 293 294 294 295 294 293 292 292 292 291 291 292 292 293 293 292 291 291 290 290 290 289 288 286 285 284 284 285 285 286 287 287 286 287 288 288 288 287 287 287 288 288 289 289 290 290 290 290 290 290 290 290 290 289 289 289 289 290 291 292 293
302 302 302 302 301 300 299 298 298 298 298 298 298 298 298 298 298 297 297 296 294 294 294 294 294 293 293 293 293 293 293 293 292 291 291 291 292 292 292 292 292 291 291 290 290 290 289 287 286 284 284 284 285 285 286 287 287 287 288 288 288 288 287 287 287 287 288 288 289 289 290 290 290 290 290 290 290 289 289 289 289 289 289 290 291 292
303 303 303 303 303 302 301 299 299 299 299 298 298 298 298 298 297 297 296 295 294 294 294 295 295 296 295 294 293 293 293 293 293 292 291 291 291 292 292 292 291 291 290 290 290 290 289 287 285 284 284 284 284 285 286 287 287 287 288 288 288 287 287 287 287 287 288 288 289 289 289 290 290 290 290 290 289 289 289 289 289 289 289 289 290 291
304 304 303 303 304 303 302 300 299 299 299 298 298 297 297 297 297 296 296 295 294 294 295 295 296 296 297 296 295 294 294 294 293 292 292 291 291 291 291 291 291 290 290 290 290 289 288 287 285 284 284 284 284 284 285 286 287 288 288 288 288 287 287 287 287 288 288 288 289 289 289 289 289 290 290 290 289 289 289 289 289 289 289 289 289 290
305 304 303 303 304 304 303 301 300 300 299 298 298 297 297 296 296 296 295 295 295 295 295 296 296 297 297 296 295 294 294 294 293 293 292 291 290 291 291 291 290 290 289 289 289 289 288 286 285 284 284 284 284 284 285 287 287 288 288 288 287 287 286 287 288 288 289 289 289 289 289 289 289 289 289 289 289 289 289 289 289 289 289 289 289 289
304 304 304 303 303 304 303 302 301 300 299 299 298 297 296 296 296 296 295 295 295 295 295 296 297 297 296 294 293 294 294 294 293 293 293 291 290 290 290 291 290 289 288 288 288 288 287 285 284 284 284 284 284 284 285 287 288 288 288 287 287 286 286 287 288 288 289 289 289 289 289 289 289 289 289 289 289 289 289 289 289 289 289 289 289 289
303 304 304 303 303 303 303 302 301 300 300 299 298 297 296 296 296 296 296 295 295 295 296 297 297 296 294 293 293 293 294 293 293 293 292 291 289 288 290 290 290 289 288 287 288 288 286 285 284 284 284 284 284 284 286 287 288 288 287 287 286 286 286 287 288 288 289 289 289 289 289 289 289 289 289 289 289 289 289 289 289 289 289 289 289 289
302 303 303 303 303 303 303 302 301 300 300 299 299 298 297 297 296 296 296 296 296 296 296 295 293 293 292 293 293 293 293 293 293 293 292 291 289 288 289 289 289 288 287 287 287 287 285 284 284 284 284 284 284 285 286 287 288 288 287 287 286 286 287 287 288 288 288 288 288 288 289 288 288 288 288 288 288 288 289 289 289 289 289 289 289 289
301 301 302 301 301 301 301 301 300 300 299 299 299 298 297 297 297 297 296 296 296 296 295 294 293 292 291 291 292 292 292 293 292 292 292 292 290 288 288 289 289 288 287 286 286 286 285 284 284 284 284 284 284 285 286 287 287 288 287 287 287 287 287 287 288 288 288 288 288 288 288 288 288 288 288 288 288 288 288 288 288 289 289 288 289 289
300 300 300 300 300 300 301 300 300 299 299 298 298 297 297 297 296 296 296 295 295 295 294 293 291 290 289 289 290 290 291 292 292 292 291 291 289 287 288 288 288 287 286 286 286 285 284 284 284 284 284 284 284 285 286 287 287 287 287 287 287 287 287 287 287 287 288 288 288 288 288 288 288 288 288 288 288 288 288 288 288 288 288 288 288 288
299 300 300 299 299 299 300 300 299 299 299 298 298 297 297 296 296 296 295 295 294 294 293 292 291 289 288 288 288 289 290 291 291 291 291 290 288 287 287 287 287 286 285 285 285 285 284 284 284 284 284 284 285 285 286 287 287 287 288 287 287 287 287 287 287 287 287 287 287 287 287 287 287 287 287 287 287 287 288 288 288 288 288 288 288 288
299 299 299 299 299 299 298 298 298 298 298 298 298 297 296 296 295 295 294 294 293 293 293 292 291 290 288 288 287 288 289 290 291 291 290 290 288 287 287 287 286 286 285 285 285 284 284 285 285 285 284 285 286 286 287 287 287 288 288 287 287 287 287 287 287 287 287 287 287 287 287 287 287 287 287 287 287 287 287 287 287 287 287 287 287 287
297 298 298 298 298 297 297 297 297 297 297 297 297 296 296 296 295 294 293 293 293 293 293 293 292 290 289 288 288 287 288 289 290 290 290 289 288 287 286 286 286 285 285 285 284 284 284 285 286 286 286 286 286 286 287 287 287 287 288 288 287 287 287 287 287 287 287 287 287 287 287 287 287 287 287 287 287 287 287 287 287 287 287 287 287 287
296 296 296 296 296 296 296 296 296 296 296 296 296 296 295 295 294 294 293 293 292 293 293 293 293 291 290 289 288 287 287 288 289 289 289 289 288 286 286 286 285 285 285 284 284 284 284 285 286 286 286 286 286 286 287 287 287 287 287 287 287 287 287 287 287 287 287 287 287 287 287 287 287 287 287 287 287 287 287 287 287 287 287 287 287 287
294 295 295 295 295 295 295 295 295 295 295 294 294 294 294 294 294 294 293 293 293 293 293 293 293 291 290 289 287 287 287 287 288 288 288 288 287 286 286 285 285 284 285 284 284 284 284 285 285 286 286 286 286 286 287 287 287 287 287 287 287 287 287 287 287 286 286 286 286 286 286 286 286 286 287 287 287 287 287 287 287 287 287 287 287 288
293 293 293 293 294 294 294 294 293 293 293 293 293 293 293 293 293 293 293 293 293 293 293 293 292 291 290 289 289 289 288 287 288 288 288 288 287 286 286 285 284 284 284 285 285 285 285 285 285 285 286 286 286 286 286 287 287 287 286 286 286 286 286 286 286 285 285 285 285 285 285 286 286 286 286 286 286 286 287 287 287 287 287 287 287 288
292 292 292 292 292 292 292 292 292 292 292 292 292 292 292 292 292 292 292 292 293 293 293 293 292 291 290 291 291 291 289 288 288 288 288 287 286 286 286 285 285 284 284 285 286 287 287 286 285 285 285 285 286 286 286 286 286 286 286 286 286 285 285 285 285 285 284 284 284 284 284 285 285 286 286 286 286 286 286 286 286 287 287 287 287 288
292 292 292 292 292 292 291 291 291 290 290 290 290 291 291 291 291 291 291 291 292 292 292 292 291 291 291 291 291 290 289 289 289 289 288 287 286 286 285 285 285 284 284 285 286 287 288 287 286 285 285 285 285 285 286 286 286 286 286 285 285 285 285 285 285 284 284 284 284 284 284 284 284 285 285 285 286 286 286 286 286 286 287 287 287 287
291 291 291 291 291 291 290 290 290 290 289 289 290 290 291 291 291 291 291 291 291 291 291 291 291 291 291 290 289 288 288 289 289 289 288 287 287 286 285 285 284 284 284 285 285 286 286 286 286 285 285 285 285 285 285 285 285 286 286 285 285 285 285 285 285 285 285 285 284 284 284 284 284 284 284 285 285 285 285 285 285 286 286 287 287 287
290 290 290 290 290 289 289 289 289 289 289 289 289 290 290 291 291 291 291 291 291 291 291 291 291 291 290 290 289 288 288 288 288 288 288 287 287 286 285 285 284 284 284 284 284 285 285 286 285 285 285 284 284 285 285 285 285 285 285 285 285 285 285 285 285 285 285 285 284 284 284 284 284 284 284 284 285 285 285 285 285 285 286 286 287 287
290 290 289 289 289 288 288 288 288 288 288 288 289 289 290 290 290 290 290 290 290 291 291 291 291 291 290 290 289 288 288 288 287 286 286 287 287 286 285 285 284 284 284 284 284 285 285 285 285 285 285 285 285 284 284 284 284 285 285 285 285 285 285 285 285 285 285 285 284 284 284 284 284 284 284 284 284 284 284 285 285 285 286 286 286 286
290 289 289 289 288 288 288 287 287 287 287 288 288 289 289 289 289 289 289 289 290 290 290 290 290 290 290 289 289 289 288 288 286 285 285 286 286 286 285 285 284 284 284 284 284 285 285 285 285 286 286 286 285 285 284 284 284 284 284 285 285 285 285 285 285 285 285 284 284 284 284 284 284 284 284 284 284 285 284 284 284 285 285 286 286 286
289 289 289 289 288 288 287 287 286 286 286 287 287 288 288 288 288 288 288 289 289 289 289 289 289 288 288 288 288 288 287 287 286 285 284 285 285 285 285 284 284 284 284 284 285 285 285 285 285 285 286 286 286 285 285 284 284 284 284 284 284 285 285 285 285 284 284 284 284 284 284 284 284 284 284 284 284 285 284 284 284 284 284 285 285 286
289 289 289 289 288 288 287 287 286 286 286 286 287 287 287 287 287 287 287 288 288 288 288 287 287 287 287 287 286 286 286 286 285 284 284 284 284 284 284 284 284 284 284 285 285 285 285 285 285 285 285 286 286 285 285 284 284 283 283 284 284 284 284 284 284 284 284 284 283 283 283 284 284 284 284 284 284 284 284 284 284 284 284 284 285 285
289 289 289 288 288 288 287 286 286 286 286 286 287 287 287 287 287 287 286 286 287 286 286 286 286 286 285 285 285 285 285 285 285 284 284 284 284 284 284 284 284 284 284 285 285 285 285 286 286 286 285 285 285 285 284 284 284 283 283 283 283 283 283 283 283 283 283 283 283 283 283 284 284 284 284 284 284 284 284 284 284 284 284 284 284 284
289 289 288 288 288 287 286 286 286 286 286 286 286 286 286 286 286 286 286 286 286 285 285 285 285 284 284 284 284 284 284 284 284 284 283 284 284 284 284 284 284 284 284 285 285 285 285 285 285 286 286 285 285 285 284 284 283 283 283 283 283 283 283 283 283 283 283 283 283 283 283 283 284 284 284 284 284 284 284 284 284 284 285 285 285 284
289 288 288 287 287 286 286 286 286 286 286 286 286 286 285 285 285 285 285 285 284 284 284 283 283 283 282 282 282 282 282 283 283 283 283 283 283 284 284 284 284 284 284 284 284 285 285 285 285 285 285 285 285 285 284 284 283 283 283 283 284 284 284 283 283 283 283 283 283 283 283 283 283 284 284 284 284 284 284 284 284 284 284 285 285 284
289 288 287 287 286 286 286 286 286 286 286 285 285 285 285 285 285 285 284 284 283 283 282 282 282 282 281 281 281 281 281 282 282 283 283 283 283 283 283 284 284 284 284 284 284 284 284 284 284 284 284 284 284 284 284 284 284 283 283 283 283 284 284 283 283 283 283 283 283 283 283 283 283 283 284 284 284 284 284 284 284 284 284 284 284 284
288 287 287 286 286 286 286 286 286 286 285 285 285 284 284 284 284 284 283 283 283 282 282 282 281 281 281 281 281 281 281 281 282 282 283 283 283 283 283 283 283 283 283 283 284 284 284 284 284 284 284 284 284 284 284 284 284 283 283 283 283 283 283 283 283 283 283 283 283 283 283 283 283 283 283 283 284 284 284 284 284 284 284 284 284 284
287 287 286 286 286 286 285 285 285 285 285 284 284 284 284 284 283 283 283 282 282 282 282 282 282 282 282 282 281 281 281 281 281 282 282 283 283 283 283 283 283 283 283 283 283 283 283 283 283 283 283 283 283 283 283 283 283 283 283 283 283 283 283 283 283 283 283 283 283 282 282 283 283 283 283 283 283 283 284 284 284 284 284 284 284 284
287 287 286 286 285 285 285 285 285 285 284 284 284 284 284 284 283 283 283 282 282 282 282 282 282 283 283 283 282 281 281 281 281 282 282 283 283 283 283 283 283 283 283 283 283 283 283 283 283 283 282 282 282 282 282 282 283 283 283 283 283 282 282 283 283 283 283 283 282 282 282 282 283 283 283 283 283 283 283 284 284 284 284 284 284 284
286 286 286 285 285 285 285 285 284 284 284 284 283 283 284 283 283 283 283 283 282 282 282 282 283 283 284 283 283 282 281 281 281 282 282 282 282 283 283 283 283 283 283 283 283 283 282 282 282 282 282 282 282 282 282 282 282 282 283 283 283 283 282 282 282 282 282 282 282 282 282 282 283 283 283 283 283 283 283 283 283 284 284 284 284 284
286 286 285 285 285 284 284 284 284 284 284 283 283 283 283 283 283 283 283 282 282 282 282 282 282 283 284 284 283 283 282 282 281 281 282 282 282 282 282 282 282 282 282 282 282 282 282 282 282 282 282 282 282 282 282 282 282 282 282 283 283 283 283 283 283 282 282 282 282 282 282 282 283 283 283 282 282 282 283 283 283 284 284 284 284 284
286 285 285 285 284 284 284 284 284 284 284 283 283 283 283 283 283 283 282 282 282 282 282 282 282 283 283 284 284 283 283 283 282 282 281 281 282 282 282 282 282 282 282 281 281 281 281 281 281 281 281 281 282 282 283 283 283 283 283 283 283 283 283 283 283 283 283 282 282 282 282 282 282 282 282 282 282 282 283 283 283 283 284 284 284 284
285 285 285 284 284 284 284 284 284 284 284 283 283 282 283 283 283 282 282 282 282 282 282 282 282 283 283 284 284 283 283 283 283 282 282 281 281 281 281 281 281 281 281 281 281 280 280 280 280 280 280 280 281 281 282 283 283 283 283 283 283 283 283 283 283 283 283 283 282 282 282 282 282 282 282 282 282 282 283 283 283 283 283 283 284 284
285 285 285 284 284 284 284 284 283 283 283 283 283 282 282 282 282 282 282 282 282 282 282 282 282 283 283 284 283 283 284 284 283 282 282 281 281 281 281 281 281 281 281 281 281 281 281 281 281 282 281 281 281 281 281 282 283 283 284 283 283 283 283 283 283 283 283 283 282 282 282 282 282 282 281 282 282 282 282 283 283 283 283 283 284 284
Wind_Speed
9 9 9 9 8 8 9 9 9 10 10 11 11 12 13 13 14 15 16 16 16 16 16 16 16 15 14 12 11 10 8 7 6 5 5 4 3 3 3 3 3 3 3 2 2 3 3 3 3 4 4 5 6 6 7 7 7 7 7 6 6 6 6 5 5 4 4 4 4 4 4 4 4 4 4 4 3 2 1 1 2 2 2 2 3 3
9 9 9 8 8 8 9 10 10 11 11 12 12 12 13 15 16 16 17 17 17 17 16 16 15 14 13 12 11 9 8 7 7 6 6 5 4 3 3 3 3 2 2 2 2 2 2 2 3 3 4 5 5 6 6 6 7 7 7 7 7 7 6 6 6 6 5 5 5 5 5 4 4 3 3 3 2 2 1 1 1 1 1 2 2 3
9 9 10 9 9 9 10 11 11 11 12 12 12 12 14 16 17 17 18 18 18 18 17 16 15 14 13 12 11 10 9 8 8 7 6 5 4 3 2 2 2 1 1 1 1 1 1 1 2 2 3 4 5 5 6 7 7 8 8 8 8 8 8 8 7 7 7 7 6 6 5 5 4 3 2 2 2 1 1 1 1 1 1 1 1 2
11 11 11 10 10 10 11 12 13 13 12 12 11 12 14 16 18 18 18 19 18 18 17 16 15 14 13 12 11 10 9 9 9 8 7 5 4 3 2 2 1 1 0 0 0 1 1 1 1 2 2 2 3 4 5 6 8 9 10 10 10 9 9 9 9 8 8 8 7 7 6 5 4 3 3 2 1 1 1 1 1 1 1 0 1 2
11 12 12 12 11 11 11 12 13 13 13 12 12 13 15 17 18 18 19 19 19 18 17 17 16 14 13 12 12 11 10 10 9 9 8 6 5 4 4 3 2 1 1 1 1 2 2 2 3 3 3 3 2 2 3 4 6 8 10 11 11 11 10 10 9 9 8 8 7 6 6 5 5 4 3 3 2 1 1 1 1 1 1 1 1 1
10 11 12 12 12 12 13 14 14 14 14 13 13 14 15 17 18 18 19 19 18 18 17 17 16 15 14 13 12 11 11 10 10 9 8 8 7 6 5 4 3 2 1 1 2 2 3 3 3 3 4 4 4 3 3 3 4 6 9 10 11 11 10 10 9 9 8 8 7 7 6 6 5 5 4 3 3 2 1 0 1 1 1 1 1 2
10 11 13 13 13 14 14 15 15 15 15 14 14 15 16 17 18 18 19 18 18 18 17 17 16 15 14 13 12 12 12 11 11 10 9 8 7 6 5 4 3 2 1 2 2 3 3 3 3 3 4 4 4 4 4 3 2 4 6 8 9 10 10 9 9 8 8 8 8 7 7 6 6 6 5 5 4 3 2 1 0 1 1 1 2 2
12 12 14 14 14 14 15 15 16 15 15 15 15 15 16 17 18 19 19 18 18 18 18 17 17 16 15 14 13 13 13 13 12 11 9 9 8 7 6 5 4 2 1 1 2 3 3 3 3 3 3 3 4 4 3 2 1 2 3 5 6 7 8 8 8 8 8 8 8 8 7 7 6 6 6 6 5 5 3 2 1 1 2 2 3 3
14 14 14 15 15 15 14 14 15 15 15 15 15 16 17 18 18 18 18 18 18 18 18 18 18 17 16 15 14 14 14 13 11 10 9 9 8 8 7 6 5 3 1 1 2 3 3 4 3 3 3 4 4 4 3 2 1 2 3 4 4 5 6 6 6 6 6 7 7 7 7 7 6 6 6 6 6 6 5 4 2 2 2 3 3 3
14 15 14 14 14 15 14 13 14 14 14 14 14 15 16 18 18 18 17 18 18 19 19 19 19 19 18 17 15 15 14 12 10 9 9 9 9 9 8 7 6 4 2 1 2 3 4 4 4 4 4 4 4 4 3 2 2 3 4 4 4 4 4 4 5 5 5 6 6 6 7 7 6 6 6 6 6 6 6 5 4 3 3 3 3 3
13 14 14 13 13 14 14 14 14 15 15 15 14 13 14 17 18 17 16 16 18 19 19 20 20 20 20 18 17 16 15 14 14 13 13 12 12 11 10 8 7 5 3 2 3 4 4 4 4 4 4 5 5 4 3 2 2 3 4 4 5 5 4 4 4 4 4 5 5 5 6 6 6 5 5 5 5 5 5 5 5 5 5 4 4 4
13 13 13 13 13 13 13 14 15 16 16 15 13 12 13 15 17 17 16 16 17 18 18 20 21 21 21 20 18 17 17 17 17 17 17 16 15 13 12 10 7 5 4 3 4 4 5 5 5 5 5 5 5 4 3 3 3 4 4 5 5 5 5 5 5 4 4 4 4 4 4 5 4 4 3 3 3 3 4 5 6 6 6 6 5 5
13 13 13 13 13 14 14 14 15 16 16 15 14 12 13 15 16 16 15 15 17 18 19 20 21 22 23 22 20 18 17 17 18 18 18 17 16 14 12 10 8 6 5 4 5 5 6 6 6 6 6 5 5 4 3 3 3 4 4 5 5 5 5 5 5 5 5 4 4 4 4 4 4 4 3 3 3 3 3 5 6 7 7 6 6 6
12 13 12 12 12 13 14 15 16 16 16 16 15 14 14 15 16 16 14 14 15 17 19 19 20 21 22 23 22 19 17 17 18 18 18 17 16 14 12 10 8 6 5 5 6 6 6 6 6 6 5 5 4 3 2 2 2 3 4 4 5 5 6 6 6 6 6 5 5 5 4 4 4 4 4 4 3 3 4 5 6 7 7 7 7 7
12 12 11 10 10 11 13 15 15 16 16 16 15 14 13 15 17 17 16 14 15 16 17 17 18 20 21 21 22 21 19 17 17 17 17 17 17 15 13 10 8 7 6 6 6 7 7 7 6 5 4 4 3 3 2 1 2 3 3 3 4 4 5 6 7 7 7 6 6 6 5 5 5 5 5 4 4 4 4 5 7 7 8 7 7 7
13 12 11 10 10 11 13 14 15 15 15 15 15 15 15 16 17 18 17 16 16 17 16 14 13 14 17 21 22 22 21 17 16 16 16 17 17 15 13 11 9 8 7 7 7 7 7 7 6 5 4 5 5 5 4 3 2 3 3 2 2 3 4 5 6 7 7 7 7 6 5 5 5 5 5 4 4 4 4 5 6 7 8 8 8 8
13 12 11 10 10 11 12 14 15 15 14 15 16 17 17 17 18 19 18 18 18 17 16 14 11 9 10 15 20 23 22 18 15 13 14 15 16 16 14 12 10 8 8 8 8 8 7 6 5 5 6 7 7 6 6 5 4 3 3 3 3 3 3 4 5 6 7 7 7 7 6 6 5 5 4 4 4 3 3 4 5 6 7 8 8 8
12 12 11 11 10 11 12 13 14 15 15 15 17 18 18 18 19 19 19 19 18 17 15 15 13 10 9 10 17 24 25 21 16 12 11 12 15 16 15 13 11 9 9 9 9 8 8 7 6 6 7 7 7 7 7 5 4 4 4 4 4 3 3 4 5 6 6 6 7 7 7 6 6 5 5 4 4 3 3 3 4 5 7 8 8 8
12 12 12 12 12 11 12 13 14 15 16 17 17 18 18 18 18 19 19 19 18 17 16 14 13 11 10 10 16 24 27 24 18 12 10 10 12 16 15 14 12 10 9 9 9 9 8 7 7 8 8 7 7 7 7 5 4 4 4 5 4 4 4 5 6 6 5 5 5 6 6 6 6 6 5 4 4 3 3 2 3 4 5 7 8 9
12 12 13 13 12 12 12 13 15 16 17 18 19 19 18 18 18 18 18 17 17 17 16 14 12 11 9 10 14 20 25 25 20 14 10 9 11 14 15 14 12 10 9 9 10 10 8 7 7 7 7 7 7 7 7 5 4 4 5 5 5 4 5 6 7 6 5 5 5 5 5 5 5 5 5 5 4 4 3 3 3 3 3 4 6 8
12 12 12 13 13 12 12 13 15 17 19 19 20 20 19 19 18 18 17 17 16 16 14 13 11 10 9 11 14 18 21 24 21 15 10 9 10 12 14 14 13 10 9 9 10 9 8 7 7 7 7 7 8 8 7 5 4 4 5 5 4 4 6 8 7 6 5 5 5 5 5 5 5 6 5 5 5 4 4 3 3 3 3 3 4 5
11 10 11 11 12 12 12 12 14 17 19 19 20 20 19 19 18 18 17 17 16 15 14 12 10 10 11 13 14 16 18 23 22 16 11 9 8 10 13 13 12 10 8 9 9 9 7 7 7 7 7 8 8 8 7 6 5 5 5 5 4 5 7 8 8 7 6 6 6 6 6 6 6 7 7 7 6 6 5 4 4 3 3 3 3 4
11 10 9 9 10 11 11 11 13 16 17 18 20 20 20 20 20 18 17 17 16 15 15 14 13 12 12 13 14 15 18 23 22 17 13 9 8 9 12 12 12 10 8 8 9 8 7 7 7 7 7 8 8 8 7 6 5 5 5 4 5 6 8 8 8 7 6 6 6 6 6 6 7 7 7 7 7 7 7 6 5 4 3 3 3 3
12 10 8 8 9 10 11 11 13 15 16 17 17 18 18 19 18 18 17 17 17 17 16 16 14 11 10 11 13 15 18 22 23 19 13 10 9 9 11 11 11 11 9 8 8 7 6 7 7 7 7 7 8 8 8 6 5 5 5 5 6 7 8 8 8 7 7 6 6 6 6 6 6 6 6 7 7 8 7 7 6 5 5 4 4 3
14 12 11 10 11 11 12 12 12 13 14 15 17 17 17 17 17 17 17 17 18 17 16 15 12 9 9 11 13 16 18 21 23 20 14 10 9 9 10 11 11 11 9 9 8 7 6 6 6 7 7 7 8 8 8 7 6 6 6 5 6 7 8 8 8 7 7 7 6 6 6 6 5 6 6 6 7 7 7 7 7 6 6 5 5 5
16 16 14 13 12 12 12 12 12 12 13 14 16 18 18 18 18 17 17 17 17 17 16 13 10 8 9 10 12 15 18 20 23 22 16 11 10 10 10 11 11 11 9 9 8 7 6 5 5 6 6 7 7 7 7 7 7 7 6 6 6 7 7 7 7 7 7 7 6 6 6 6 6 6 6 6 6 7 7 7 8 7 7 6 6 6
15 15 15 14 13 13 12 13 13 13 13 14 15 17 19 19 19 18 17 17 18 18 15 12 9 7 8 8 10 13 18 20 23 22 18 13 10 10 11 12 12 11 9 8 8 7 7 5 5 5 7 8 8 8 8 7 7 7 7 6 6 6 6 6 6 6 6 6 6 6 6 5 5 5 5 5 6 6 6 7 7 8 7 7 6 5
10 12 13 13 13 12 12 12 13 13 13 13 14 16 18 20 19 18 16 17 18 17 14 12 9 8 7 8 9 12 17 21 23 23 20 14 10 10 12 13 13 12 9 8 8 9 8 7 6 7 8 9 9 10 10 9 9 8 7 7 6 6 6 6 6 6 6 6 6 6 6 5 5 5 5 5 5 5 5 5 6 6 6 6 5 3
7 8 9 10 10 10 10 11 12 12 12 12 13 15 17 18 18 17 17 18 18 16 13 12 11 10 9 9 10 11 15 19 22 22 21 15 11 10 13 14 14 13 10 9 8 8 9 8 8 8 8 9 10 11 11 11 11 10 9 9 8 8 8 8 7 7 7 7 7 6 6 6 5 5 5 4 4 4 4 4 3 3 3 3 3 2
6 6 6 7 7 8 10 11 11 11 11 11 12 14 15 16 15 16 17 18 18 16 13 12 12 12 12 11 9 7 10 16 21 22 21 15 11 11 13 14 15 14 12 9 7 5 6 8 9 9 10 10 11 11 12 12 12 11 11 11 10 10 10 9 8 8 7 6 6 6 6 6 6 6 6 5 5 5 4 4 3 2 1 1 1 2
7 7 7 7 8 9 10 11 11 12 12 12 13 14 15 14 13 13 15 18 18 16 14 13 13 14 14 11 7 4 6 15 21 23 21 16 13 12 14 16 16 16 14 10 7 4 3 6 9 10 11 11 11 12 12 12 12 12 11 11 11 10 10 10 8 7 6 5 5 5 6 6 7 7 7 7 6 6 5 5 4 4 3 2 2 2
9 10 10 10 10 10 11 12 12 13 14 14 15 16 16 15 13 13 14 16 17 16 14 14 15 16 16 12 8 5 6 14 21 23 21 17 14 13 13 15 17 17 16 13 9 5 3 5 8 11 12 12 12 13 13 13 13 13 12 11 10 10 10 10 9 7 6 5 5 5 6 7 8 8 8 8 8 7 7 7 6 5 4 3 3 3
11 11 11 11 11 12 12 12 13 13 14 15 15 16 16 16 15 14 14 15 15 14 13 14 15 16 15 12 9 7 8 13 19 22 22 19 15 13 13 14 16 17 17 15 11 6 4 5 8 10 12 13 13 13 14 14 15 14 14 12 10 9 10 10 10 9 8 7 7 6 7 7 8 9 9 9 9 9 8 8 7 6 5 4 3 3
11 11 11 11 11 11 11 12 12 13 13 14 15 15 16 16 15 14 15 16 16 15 14 14 15 16 14 12 8 7 8 11 15 19 22 21 17 14 15 15 16 17 18 16 12 7 4 6 8 9 10 12 13 13 14 15 16 16 15 14 13 11 10 11 11 10 9 8 8 7 7 7 8 8 9 9 10 9 9 8 8 7 6 5 4 4
11 10 10 10 10 10 10 10 11 12 12 13 14 14 15 15 14 14 14 15 16 16 15 15 15 15 14 12 9 9 10 10 12 16 20 22 20 17 16 16 16 17 18 16 13 8 6 7 9 9 9 9 10 12 13 15 16 16 16 16 15 14 12 12 12 11 10 9 9 8 8 7 7 8 9 9 10 10 10 9 9 9 8 7 6 6
10 10 10 10 10 10 10 10 10 11 12 13 13 14 14 14 13 13 13 14 15 16 15 15 14 14 14 12 11 11 12 11 11 13 17 20 20 18 17 16 17 17 18 16 14 11 8 8 9 9 9 8 8 9 11 13 14 15 15 16 16 16 15 14 13 12 11 10 9 8 8 8 7 8 8 9 9 10 10 10 10 10 10 10 9 8
10 10 10 10 10 10 10 10 10 11 12 13 13 13 13 13 13 13 13 13 14 14 14 13 13 13 13 13 12 12 12 11 10 11 14 17 18 18 16 16 17 17 17 16 15 13 10 9 9 9 9 8 7 8 10 12 13 13 14 14 15 15 16 14 13 12 11 10 9 8 8 8 8 8 8 9 10 10 10 10 10 11 11 11 11 10
10 10 10 10 10 10 10 10 10 11 13 13 14 14 13 13 12 12 12 12 12 12 12 12 11 11 12 12 12 11 10 9 9 10 12 15 17 17 15 16 16 16 16 16 15 14 12 10 9 8 8 7 7 8 10 11 11 11 12 12 12 13 14 14 13 11 11 10 9 9 8 9 9 9 9 10 10 10 10 10 10 11 11 12 12 12
10 10 10 10 10 10 10 10 11 13 14 15 15 14 13 13 12 12 12 11 11 11 11 11 10 10 11 11 11 11 10 10 10 10 12 14 16 16 15 15 16 16 15 15 14 13 12 11 10 9 8 8 7 8 9 9 10 10 9 10 10 11 12 12 12 11 10 9 9 9 9 9 9 9 10 10 10 10 10 10 10 11 11 12 12 12
10 10 10 10 9 9 10 11 13 14 15 15 15 14 13 13 12 11 11 11 11 10 10 10 10 10 10 11 11 11 10 10 11 11 12 14 16 16 16 15 16 17 16 15 13 12 11 10 9 9 9 8 8 8 8 8 9 9 8 8 8 9 10 10 10 10 10 9 9 9 9 9 9 9 9 10 10 10 10 10 10 11 11 11 12 12
10 10 10 10 10 11 12 13 14 15 15 15 14 13 12 12 12 11 11 11 10 10 10 10 10 10 10 10 10 10 10 10 10 11 12 14 16 17 16 15 16 17 17 16 14 12 11 9 8 7 8 8 8 8 8 9 9 9 9 8 7 7 7 8 9 9 9 9 9 9 9 9 10 10 9 10 10 10 10 11 11 11 11 12 12 12
10 10 11 11 12 13 13 13 14 15 15 14 13 12 12 12 11 11 11 11 10 10 10 10 10 10 10 10 10 10 10 10 10 11 13 14 16 17 16 15 15 16 17 16 15 13 11 10 9 8 8 8 8 8 8 8 8 9 9 9 8 6 5 7 9 9 9 9 9 9 10 10 10 10 10 10 10 10 11 11 12 12 12 12 12 12
10 11 12 13 14 14 14 14 14 15 14 13 13 12 12 11 11 11 11 12 11 11 11 10 10 10 10 10 10 10 10 11 11 12 13 15 16 17 16 15 14 14 15 16 15 13 13 11 10 9 9 9 9 8 8 8 8 9 10 10 10 8 5 7 8 9 9 9 9 9 9 10 10 10 10 10 10 11 11 12 12 12 13 13 13 13
11 12 13 14 15 15 15 14 15 15 14 13 13 12 11 11 11 11 11 12 12 12 12 11 10 9 9 9 9 10 11 11 12 13 14 15 16 17 16 15 14 14 14 14 14 13 13 12 11 10 10 10 9 9 9 8 8 9 9 10 11 10 9 8 8 9 8 8 8 8 8 9 9 9 10 10 11 11 12 12 12 12 12 13 13 13
13 14 14 14 15 15 15 15 15 15 14 13 12 12 12 12 11 11 11 12 12 12 12 12 11 9 8 8 8 9 11 11 12 13 14 15 16 16 16 15 14 14 13 13 12 12 11 11 11 10 11 11 10 10 10 9 9 8 9 9 10 11 11 8 8 9 9 9 9 8 8 9 9 9 10 11 11 11 11 12 12 12 12 12 13 13
14 14 14 15 15 15 15 15 15 14 13 12 12 13 13 13 12 12 11 11 12 12 13 12 11 9 8 8 9 9 10 11 12 13 14 15 15 15 15 15 14 14 14 13 12 11 10 10 9 9 9 10 10 11 11 10 10 9 9 9 10 10 11 10 10 10 9 9 8 8 9 9 9 9 10 11 11 11 11 11 11 11 11 11 12 12
15 15 15 15 15 15 15 15 15 14 13 12 12 13 14 14 13 12 11 11 11 12 13 12 11 9 8 9 10 10 10 10 11 13 14 15 15 15 15 15 14 14 14 14 13 12 12 11 10 9 9 9 9 10 11 11 11 11 10 10 10 10 10 11 11 10 10 9 8 9 10 9 9 10 10 10 10 10 10 11 10 10 10 10 11 11
15 15 15 15 15 15 14 15 15 14 13 12 13 13 14 14 14 13 12 11 11 12 12 12 11 9 8 9 10 11 11 11 11 12 14 15 15 15 15 14 14 13 12 12 12 12 12 12 12 11 11 10 9 8 9 10 11 11 11 10 10 10 10 10 10 10 9 9 10 10 10 10 10 9 9 9 9 9 9 9 9 10 10 10 10 10
15 15 15 15 15 15 14 15 15 15 14 13 13 14 15 15 14 14 13 13 12 12 12 12 11 10 9 9 10 10 11 11 11 12 13 14 15 15 15 14 13 12 12 11 11 11 11 12 12 13 13 13 11 10 9 9 9 10 10 10 10 10 9 8 8 8 9 10 10 11 11 11 10 9 8 8 8 8 8 8 9 9 9 9 9 10
14 15 15 15 15 15 15 15 15 15 14 13 14 15 15 15 15 14 14 13 13 12 12 12 12 11 10 10 11 11 11 11 11 11 12 14 15 15 14 14 13 12 10 10 9 9 9 9 11 12 13 14 14 13 12 10 9 9 10 10 10 10 9 8 8 8 9 9 10 11 11 10 10 10 9 9 9 9 8 8 9 9 10 10 9 9
14 15 15 16 16 16 15 16 16 15 14 14 14 15 16 16 15 15 14 14 13 12 12 12 12 11 10 10 11 12 12 12 11 12 12 13 14 15 14 14 13 11 9 7 6 5 5 5 6 9 11 13 14 14 15 12 11 10 10 10 10 10 10 9 8 8 9 9 9 9 10 10 10 10 10 10 10 9 9 9 9 9 9 9 9 9
Wind_Direction
210 212 217 218 215 209 205 213 215 212 211 210 207 206 207 206 203 200 199 200 203 205 206 207 208 209 210 210 211 213 214 215 213 206 201 203 219 245 267 280 286 283 273 256 238 226 219 213 207 203 197 190 184 177 170 164 159 153 147 141 133 126 122 124 128 131 138 147 152 156 164 179 191 201 208 217 226 241 277 330 347 0 23 53 58 51
210 212 214 216 212 204 199 206 210 212 214 214 212 210 207 203 201 200 200 200 202 204 204 205 208 209 209 208 209 210 210 209 206 201 196 201 215 237 258 273 280 278 266 243 220 212 211 210 209 209 209 208 207 204 199 194 186 179 173 169 164 158 152 148 145 145 146 151 151 152 160 173 183 189 197 207 216 227 242 277 342 14 45 64 57 43
201 201 204 211 210 201 195 196 203 211 215 217 217 214 208 203 200 200 200 201 203 203 204 203 204 205 206 204 204 205 204 203 201 200 200 204 211 222 236 251 263 269 256 220 207 210 226 230 229 223 220 218 218 219 219 217 212 205 199 191 186 181 177 172 167 164 164 165 164 164 168 172 175 176 177 184 197 213 236 253 277 307 356 59 57 38
197 193 196 201 202 200 196 194 197 205 211 214 215 212 207 203 201 200 200 202 203 204 204 203 201 200 200 199 198 198 199 201 201 201 203 200 198 200 202 209 222 240 252 277 333 340 327 315 299 280 263 246 237 232 229 226 224 221 216 209 203 198 194 190 187 183 181 180 180 180 180 179 176 172 173 174 182 209 250 271 289 302 310 2 49 29
196 195 197 194 191 191 196 195 197 202 206 208 207 205 203 201 200 200 200 202 203 203 203 201 199 197 197 195 194 194 196 199 201 201 198 194 194 195 194 200 214 238 289 332 352 353 348 341 335 327 320 311 297 275 253 236 229 225 222 219 215 210 206 203 201 199 197 196 196 197 195 192 189 187 189 190 196 216 261 300 318 331 342 11 54 45
192 195 198 192 186 186 191 193 197 200 200 201 202 201 200 200 199 199 198 199 200 201 201 200 198 196 194 192 191 191 192 195 196 194 192 191 191 192 194 202 216 238 286 333 350 357 356 352 347 341 335 331 327 322 306 271 239 227 222 221 219 217 214 212 211 211 211 211 211 210 209 208 207 207 205 205 208 212 230 309 1 12 19 36 65 69
185 190 192 188 187 190 191 192 196 199 197 195 197 198 198 197 197 197 196 196 197 197 198 199 198 195 191 188 186 187 187 188 188 188 188 188 188 190 195 200 209 227 276 329 350 357 357 355 349 344 338 335 332 330 326 310 261 226 218 217 216 215 215 215 215 216 218 218 218 217 217 218 218 218 218 216 214 213 209 196 61 41 38 53 74 77
176 182 186 184 186 189 190 191 194 197 198 196 194 192 193 194 195 195 196 195 194 194 194 194 195 193 188 183 182 184 185 184 183 184 185 186 188 191 196 200 207 221 260 321 348 355 354 352 345 339 333 328 325 323 320 312 271 211 200 202 206 208 209 210 212 214 216 217 218 218 219 220 221 223 223 222 220 215 207 196 152 70 59 64 73 76
176 176 182 186 186 184 184 189 193 196 199 200 197 191 188 188 190 193 193 192 191 191 191 190 190 189 186 182 182 184 184 182 181 182 183 184 188 191 194 197 202 210 232 301 340 348 348 345 339 331 324 317 315 314 312 297 240 189 176 177 182 189 194 197 202 205 208 210 212 213 214 214 217 220 222 222 222 219 213 204 183 127 87 71 68 68
183 178 178 185 191 190 183 183 189 194 196 199 200 198 193 187 186 186 187 188 188 188 188 188 187 185 183 181 179 178 175 172 171 171 171 174 177 181 185 189 193 199 212 269 322 336 339 337 331 322 313 307 306 307 304 283 225 189 175 169 166 167 170 175 183 190 195 198 201 204 205 206 208 212 217 220 223 222 219 212 194 163 122 93 76 73
181 180 176 178 186 191 188 184 185 188 190 193 196 199 198 193 188 184 182 184 186 186 185 186 186 184 179 176 174 171 168 166 166 167 168 168 170 173 179 184 189 197 215 261 304 322 327 326 320 311 302 298 298 299 295 271 224 196 183 175 169 163 159 162 166 173 180 186 190 193 196 198 201 205 212 218 223 223 220 211 195 169 142 119 99 90
177 177 176 174 175 178 181 184 186 186 186 184 184 187 193 195 194 190 185 185 185 184 183 185 186 184 179 173 171 171 172 173 173 173 172 173 175 178 182 187 194 205 230 264 291 307 314 314 309 301 293 290 291 291 285 260 224 201 191 185 179 172 165 160 159 159 160 166 173 177 181 184 186 189 195 203 209 211 207 198 184 166 148 130 115 105
180 177 174 173 173 173 174 176 178 181 182 183 182 184 189 192 193 192 191 190 188 187 186 186 185 184 181 177 174 174 178 180 181 180 178 178 181 184 188 193 201 216 239 265 284 296 305 306 302 295 286 282 283 284 274 251 221 204 196 193 191 187 180 171 163 156 151 147 146 148 151 155 157 158 159 162 165 170 174 173 167 159 150 138 127 117
174 172 170 170 173 177 178 176 175 178 185 189 192 192 191 189 188 187 187 186 187 190 189 188 187 186 184 181 178 177 180 184 186 185 184 185 188 191 195 200 209 223 243 264 279 290 298 301 297 289 280 275 272 269 256 236 215 206 200 199 199 197 193 185 175 165 154 146 138 133 131 132 135 137 138 142 145 147 154 158 159 157 152 146 138 129
171 169 168 171 176 181 184 184 183 186 192 195 196 193 189 186 184 183 180 176 179 184 186 188 190 190 189 186 182 181 181 185 188 188 188 191 195 198 201 206 215 228 243 258 274 285 293 296 292 281 268 253 240 228 205 204 220 218 205 202 201 200 198 193 185 175 163 153 143 136 132 131 132 133 133 137 141 147 153 158 159 159 157 154 148 141
177 175 176 180 184 188 193 193 194 195 196 196 193 190 185 182 182 182 180 174 172 173 175 175 182 193 198 196 192 187 185 185 187 191 192 197 201 203 206 210 218 230 241 254 267 279 287 288 283 270 249 235 226 212 187 184 208 221 205 201 204 205 199 193 188 182 172 161 152 144 138 136 136 136 136 140 146 153 161 164 166 167 166 164 159 153
185 185 187 191 194 196 198 199 200 201 198 195 193 191 187 184 183 182 179 174 171 169 171 174 176 186 201 206 202 197 192 186 186 190 194 200 205 208 210 212 219 229 240 251 263 274 281 279 268 250 238 235 228 213 193 186 193 202 196 200 210 213 200 186 180 178 175 169 161 154 149 145 143 141 143 150 158 164 168 170 174 175 176 175 171 166
194 195 199 202 204 202 199 197 200 202 199 194 193 192 191 188 185 182 180 177 173 172 174 179 184 187 190 200 207 206 199 190 185 186 191 201 209 212 213 215 220 229 241 251 260 269 274 270 254 240 238 238 230 214 199 189 187 191 194 202 213 216 197 173 164 164 168 171 169 165 161 158 155 154 155 158 164 169 169 168 174 180 184 186 184 181
207 206 206 210 212 208 200 196 196 197 195 193 191 189 188 187 185 183 182 181 179 178 179 182 187 191 194 196 205 207 203 195 189 184 185 194 209 215 215 216 220 228 239 249 257 264 268 264 255 247 243 239 228 214 202 191 186 190 199 210 217 213 185 162 151 148 157 166 170 170 169 167 166 165 165 164 165 165 164 162 166 175 185 191 194 195
217 213 210 212 213 210 203 201 200 198 195 194 191 188 184 184 183 182 183 183 184 184 184 185 189 194 193 188 196 204 205 198 191 186 185 190 205 215 216 216 218 222 231 242 254 262 264 260 252 245 238 230 220 209 199 189 185 195 209 219 222 208 177 159 149 145 151 158 163 164 165 167 168 169 170 168 166 164 162 163 160 162 171 186 196 200
223 220 217 215 214 213 210 207 205 203 200 197 193 189 185 184 183 183 184 183 184 185 185 188 191 193 189 182 188 198 202 196 190 185 185 187 199 211 216 215 215 216 221 236 249 257 259 252 244 236 228 220 213 205 196 185 186 200 216 224 221 197 171 159 152 148 150 154 157 158 160 163 166 170 170 169 168 165 164 164 162 157 155 167 185 195
226 226 223 219 217 218 216 209 204 203 204 201 196 191 187 185 184 184 184 182 182 183 186 188 186 183 182 182 186 192 195 192 189 186 183 177 188 207 215 213 210 209 212 229 244 251 250 243 235 229 222 216 210 203 193 184 188 204 216 222 206 180 166 161 157 154 155 157 158 160 162 167 172 176 177 177 175 171 167 165 164 160 152 155 164 175
224 228 228 222 218 216 211 203 200 202 205 206 203 199 196 191 188 186 184 183 182 182 183 185 183 181 181 184 185 187 189 189 189 188 184 176 180 199 211 210 205 200 202 221 236 243 239 232 227 224 220 214 210 204 192 182 187 201 207 201 182 168 165 164 163 161 162 164 166 168 172 177 182 185 188 188 186 183 177 173 171 169 168 166 163 163
219 222 223 217 212 208 204 199 198 200 202 205 205 203 201 197 193 190 187 184 182 181 181 183 181 177 178 182 184 186 189 189 187 185 184 181 182 193 204 204 196 188 192 213 227 231 225 222 221 220 216 212 208 201 189 181 185 194 193 182 171 166 167 169 170 169 168 169 172 175 179 183 188 193 196 197 197 195 192 189 186 185 185 187 188 186
216 216 215 212 209 207 207 206 204 202 201 200 199 197 194 191 188 185 184 183 181 180 178 175 168 163 169 176 180 185 190 192 189 184 181 176 174 182 198 197 187 179 184 206 220 221 212 211 215 217 212 206 201 195 186 183 186 189 187 179 173 172 174 176 177 175 173 173 174 177 180 184 188 193 198 201 202 202 202 203 202 201 202 206 211 212
220 220 220 219 216 214 215 216 215 212 208 204 199 195 190 186 183 180 179 178 178 176 171 165 159 159 167 171 178 185 190 192 190 186 182 175 170 177 190 189 180 173 180 199 209 205 193 194 205 210 204 194 188 185 183 184 187 188 186 182 179 178 179 181 181 180 179 178 179 180 184 187 191 195 200 202 203 204 206 208 210 211 213 219 226 231
226 226 227 228 227 226 224 223 220 217 213 209 205 200 193 187 181 176 173 174 176 174 168 166 163 161 162 168 179 188 191 190 189 189 187 181 173 174 183 182 175 168 172 188 194 187 171 168 180 192 190 185 181 180 180 181 184 185 184 183 180 179 179 180 181 181 182 182 183 185 188 191 196 200 204 206 206 207 208 211 215 217 219 222 229 237
225 227 230 232 233 232 227 221 216 213 210 208 206 202 197 190 181 175 173 177 177 175 172 173 169 162 163 168 178 188 192 189 188 190 190 185 174 172 184 180 174 167 163 170 178 177 167 162 168 178 184 187 186 183 179 177 177 178 177 176 174 173 175 176 177 179 181 183 185 186 188 190 193 199 203 206 206 206 208 212 216 219 219 218 216 220
210 217 222 225 224 221 213 206 202 201 202 201 201 199 197 192 186 183 182 182 178 175 176 178 175 169 164 163 170 183 191 191 189 189 190 183 173 175 186 179 173 169 163 160 165 173 174 172 173 178 186 192 193 189 183 179 178 176 174 173 172 173 175 176 178 180 184 187 190 191 191 191 193 195 197 198 198 198 200 204 203 204 210 209 203 201
179 186 190 193 194 191 186 182 181 182 184 187 188 190 191 191 191 191 190 186 181 177 177 177 173 166 159 155 156 172 193 197 193 189 187 179 172 176 184 178 175 174 169 157 150 159 180 187 187 186 189 195 197 194 188 185 183 182 180 180 181 183 184 184 184 186 190 195 200 202 201 200 200 201 200 199 196 194 195 193 182 170 180 199 207 214
145 145 144 147 153 159 162 163 162 163 165 170 175 178 181 183 187 191 193 189 184 180 177 173 169 165 161 157 154 165 192 202 197 190 188 182 177 180 185 178 177 179 177 166 154 150 172 186 193 196 196 198 198 197 194 191 189 188 187 188 191 195 196 196 196 198 204 213 221 222 219 214 212 211 209 206 201 199 199 195 185 176 184 198 215 225
141 138 135 137 141 147 152 154 156 159 162 168 173 177 177 177 179 184 188 188 185 183 180 175 171 168 168 169 171 171 176 199 198 194 191 185 183 187 191 183 181 182 182 176 170 165 159 165 181 193 196 198 199 199 198 197 195 193 192 192 198 206 210 210 211 217 227 238 245 245 239 231 226 222 219 215 211 208 207 201 191 183 187 203 217 224
153 151 148 148 150 152 154 156 160 163 168 172 176 179 180 180 180 181 182 182 182 182 181 178 174 172 171 173 171 169 177 194 198 197 194 190 186 188 192 188 185 185 185 182 179 172 158 150 163 178 189 195 198 201 203 203 202 200 198 196 199 210 220 223 225 230 240 250 256 258 254 247 239 233 229 226 223 220 217 211 201 194 196 208 217 221
162 160 159 158 156 156 158 160 163 167 172 175 179 182 183 184 184 184 183 181 180 179 179 179 176 173 172 171 168 168 181 192 196 196 196 194 192 191 191 188 187 187 186 188 186 178 149 145 152 162 176 189 197 204 208 210 211 210 208 205 203 208 223 231 235 238 244 252 260 264 263 257 249 242 238 235 233 230 228 223 214 205 203 209 215 219
162 161 161 160 158 158 160 163 167 170 173 176 180 182 184 186 186 186 185 184 183 182 182 182 180 177 175 174 173 176 186 190 191 193 196 197 197 195 191 189 189 189 186 188 188 180 155 150 153 156 162 175 190 203 211 216 218 219 218 216 214 216 225 234 240 244 249 255 260 263 263 260 255 248 242 239 237 235 233 230 223 214 208 209 213 217
159 159 160 160 159 159 160 164 168 171 173 177 179 181 182 183 184 183 183 184 185 186 187 188 187 185 183 182 183 188 193 193 189 189 194 199 201 199 192 191 193 191 186 185 185 181 168 159 158 158 158 163 176 194 206 216 222 225 225 224 224 226 231 237 242 246 251 254 256 257 257 256 253 249 244 241 239 238 236 234 230 223 215 211 213 217
158 159 160 161 161 160 161 164 167 170 171 174 176 178 178 178 177 177 177 179 182 186 188 190 191 191 192 195 198 201 202 197 190 188 192 199 202 201 194 193 195 194 187 184 183 181 174 165 163 166 168 170 172 180 193 207 216 222 225 226 227 230 234 238 241 244 247 248 248 248 248 249 247 245 243 242 241 240 238 237 235 232 227 222 221 221
161 161 161 162 162 162 162 163 166 169 171 171 173 173 174 173 172 172 172 175 179 183 187 190 192 194 197 201 206 209 207 200 193 190 192 197 199 199 195 193 194 193 190 186 183 180 175 168 167 173 181 182 177 177 187 198 205 213 221 224 227 229 234 237 239 239 239 239 238 239 241 244 245 244 243 243 243 242 241 240 238 237 235 233 231 231
164 162 161 162 163 164 163 164 168 172 174 173 171 171 170 170 170 170 172 174 178 183 187 191 193 196 199 203 206 209 208 203 197 195 195 196 196 195 194 191 189 188 187 185 183 182 179 176 176 178 181 178 173 176 188 196 199 203 209 217 223 229 232 235 235 234 232 231 231 234 239 245 248 248 247 246 245 244 243 241 239 238 238 237 236 237
166 164 161 161 161 160 162 168 175 178 177 173 171 171 171 171 172 173 175 178 181 185 189 193 196 198 200 203 206 208 208 206 202 199 197 195 194 193 192 191 189 186 183 180 180 180 181 182 183 182 179 173 169 170 179 189 194 195 197 201 213 225 231 233 232 231 229 230 233 236 241 249 254 254 251 249 246 244 241 239 238 238 238 238 237 238
168 164 161 161 162 164 168 175 180 181 177 173 171 171 173 176 176 176 178 181 184 187 191 194 196 197 199 200 202 204 205 204 201 198 196 194 192 192 192 192 191 188 184 181 178 178 178 180 180 176 171 168 167 169 176 184 191 194 195 195 201 216 230 236 236 234 233 234 237 241 246 250 253 254 252 249 246 242 240 237 235 236 238 239 238 237
168 166 165 168 170 173 176 180 181 179 175 173 172 173 176 179 180 180 180 181 182 184 187 187 187 187 188 190 193 195 195 196 195 195 193 193 193 192 192 193 192 191 188 184 181 179 178 177 175 171 167 164 162 162 170 182 194 199 199 195 192 198 224 238 242 240 236 237 239 241 244 246 248 250 250 247 244 241 239 238 237 237 238 239 240 239
169 168 171 176 180 181 181 180 178 176 174 173 173 175 178 181 183 183 182 179 178 177 178 177 177 176 174 175 180 185 186 188 189 190 191 191 193 194 193 193 192 192 190 187 184 183 184 182 180 177 176 175 171 167 170 177 190 202 204 200 193 189 192 215 229 237 237 237 236 237 239 241 243 245 246 245 243 242 241 241 241 240 241 241 242 241
169 171 176 181 185 186 184 180 176 175 174 173 174 177 179 180 181 181 180 178 177 174 171 168 167 166 164 164 170 178 182 185 186 187 189 191 193 195 195 194 192 190 189 189 187 187 189 190 189 188 189 189 186 182 180 183 190 200 206 208 206 201 198 208 222 231 235 238 238 238 238 237 238 239 241 242 244 245 246 246 245 244 243 243 243 243
174 176 180 184 185 184 180 177 176 175 175 176 178 179 179 178 178 177 176 175 174 172 167 162 156 151 149 157 168 176 180 183 185 187 188 190 193 196 197 196 193 189 188 188 190 192 192 193 195 199 202 203 200 197 192 192 195 201 208 213 215 213 211 215 225 232 236 241 246 246 242 239 236 236 236 238 241 245 249 251 251 249 246 244 243 244
180 180 181 184 183 181 179 179 178 177 176 178 182 184 183 180 177 175 175 175 174 172 169 163 157 152 152 156 163 171 176 181 185 187 188 190 192 195 198 199 197 194 190 189 189 190 191 191 193 198 205 209 211 210 208 204 202 202 206 213 218 218 215 215 220 229 236 241 245 247 245 242 238 235 234 238 243 248 253 256 257 256 253 249 247 247
182 182 182 183 181 180 180 181 180 178 177 179 183 187 187 184 179 176 174 175 175 173 171 167 164 161 161 161 164 167 170 175 181 186 188 189 191 194 198 200 201 201 199 198 197 196 195 192 191 192 196 199 204 211 215 213 209 206 205 208 214 219 219 219 221 226 231 232 233 236 242 241 238 235 237 240 246 251 254 258 260 261 260 258 255 253
184 184 184 183 181 179 180 181 181 180 178 180 185 189 190 188 183 177 173 174 175 175 173 171 170 170 169 169 170 171 171 172 176 182 187 189 191 194 196 199 201 203 206 208 210 211 210 208 206 204 202 197 197 202 209 212 212 208 204 205 209 214 217 221 224 227 228 224 223 228 235 237 236 235 237 239 243 247 251 255 259 262 264 264 262 262
187 186 185 184 181 179 180 182 183 181 180 181 185 189 191 191 187 182 177 176 176 176 175 174 174 175 175 174 172 172 171 170 173 179 185 189 192 194 196 197 199 201 205 210 214 218 222 223 223 223 221 215 207 201 200 205 207 206 203 203 206 209 211 214 218 222 223 221 223 227 234 238 239 237 234 230 232 237 243 247 252 258 263 266 267 267
188 188 187 185 182 181 182 184 184 182 181 183 185 187 189 189 188 186 184 181 179 179 179 178 178 179 179 176 172 170 169 168 168 173 181 188 192 193 194 196 196 198 201 208 215 222 230 235 235 233 232 230 222 211 203 199 199 201 202 203 205 206 206 206 209 214 219 222 225 229 234 237 238 237 232 226 226 230 236 240 245 250 257 265 269 270
187 188 187 186 185 185 185 186 185 184 183 183 185 186 186 185 185 185 186 184 182 182 182 183 183 183 182 177 174 173 171 169 167 169 177 187 192 192 192 192 192 189 186 188 197 211 226 235 241 241 237 232 227 220 213 201 195 196 199 202 206 207 206 204 204 207 213 221 227 233 235 236 236 233 230 226 225 229 235 239 243 247 252 257 262 266